Fairborn, OH

5:22 PM EST on February 07, 2016 (GMT -0500)
Wright-Patterson Air Force Base

Weather History for KFFO - March, 2014

Change the Weather History Date:

Monday, March 3, 2014

  Actual Average Record
Temperature  
Mean Temperature 12 °F -  
Max Temperature 17 °F 43 °F 68 °F (2008)
Min Temperature 7 °F 24 °F 6 °F (2003)
Degree Days  
Heating Degree Days 53    
Moisture  
Dew Point 0 °F    
Average Humidity 57    
Maximum Humidity 70    
Minimum Humidity 45    
Precipitation  
Precipitation 0.00 in - - ()
Snow  
Snow 0.00 in - - ()
Snow Depth 1.00 in    
Sea Level Pressure  
Sea Level Pressure 30.40 in    
Wind  
Wind Speed 12 mph (NNE)    
Max Wind Speed 20 mph    
Max Gust Speed 26 mph    
Visibility 10 miles    
Events      
Averages and records for this station are not official NWS values.
T = Trace of Precipitation, MM = Missing Value Source: NWS Daily Summary

Daily Weather History Graph

Daily Weather History Graph

Search for Another Location

Airport or City:

Trip Planner

Search our weather history database for the weather conditions in past years. The results will help you decide how hot, cold, wet, or windy it might be!

Date:

Astronomy

Mar. 03, 2014 Rise Set
Actual Time 7:06 AM EST 6:30 PM EST
Civil Twilight 6:39 AM EST 6:57 PM EST
Nautical Twilight 6:08 AM EST 7:28 PM EST
Astronomical Twilight 5:36 AM EST 8:00 PM EST
Moon 8:14 AM EST (3/3) 9:32 PM EST (3/3)
Length of Visible Light 12h 18m
Length of Day
11h 24m
Waxing Crescent, 8% of the Moon is Illuminated
Mar 3
Waxing Crescent
Mar 8
First Quarter
Mar 16
Full
Mar 23
Last Quarter
Mar 30
New

Hourly Weather History & Observations

Time (EST) Temp. Windchill Dew Point Humidity Pressure Visibility Wind Dir Wind Speed Gust Speed Precip Events Conditions
12:58 AM 15.3 °F 2.0 °F 6.3 °F 68% 30.29 in 10.0 mi North 11.5 mph - N/A   Overcast
1:58 AM 14.9 °F 2.3 °F 5.4 °F 66% 30.30 in 10.0 mi North 10.4 mph - N/A   Overcast
2:58 AM 14.2 °F -3.2 °F 4.1 °F 64% 30.29 in 10.0 mi NNE 19.6 mph - N/A   Overcast
3:58 AM 12.9 °F -1.6 °F 2.5 °F 63% 30.32 in 10.0 mi NNE 12.7 mph - N/A   Mostly Cloudy
4:58 AM 12.4 °F -4.1 °F 0.9 °F 60% 30.32 in 10.0 mi NNE 16.1 mph 26.5 mph N/A   Mostly Cloudy
5:58 AM 11.3 °F -7.0 °F -1.8 °F 56% 30.32 in 10.0 mi NNE 19.6 mph 24.2 mph N/A   Mostly Cloudy
6:58 AM 10.6 °F -5.2 °F -0.9 °F 60% 30.37 in 10.0 mi NNE 13.8 mph - N/A   Mostly Cloudy
7:58 AM 10.0 °F -6.5 °F -0.8 °F 62% 30.38 in 10.0 mi NNE 15.0 mph - N/A   Mostly Cloudy
8:58 AM 10.4 °F -5.4 °F -0.2 °F 62% 30.40 in 10.0 mi North 13.8 mph - N/A   Mostly Cloudy
9:58 AM 11.7 °F -3.8 °F -0.9 °F 57% 30.41 in 10.0 mi NNE 13.8 mph - N/A   Partly Cloudy
10:58 AM 13.3 °F 1.1 °F -1.5 °F 52% 30.43 in 10.0 mi NE 9.2 mph - N/A   Scattered Clouds
11:58 AM 14.2 °F 0.0 °F -2.6 °F 48% 30.44 in 10.0 mi North 12.7 mph - N/A   Clear
12:56 PM 14.0 °F -0.2 °F -4.0 °F 45% 30.38 in 10.0 mi NNE 12.7 mph - N/A   Clear
12:58 PM 14.9 °F 2.3 °F -2.7 °F 46% 30.44 in 10.0 mi NNE 10.4 mph - N/A   Clear
1:58 PM 16.0 °F 2.9 °F -2.0 °F 45% 30.44 in 10.0 mi North 11.5 mph 17.3 mph N/A   Clear
2:58 PM 16.5 °F 5.1 °F -1.1 °F 46% 30.44 in 10.0 mi North 9.2 mph 17.3 mph N/A   Clear
3:58 PM 17.2 °F 6.0 °F 0.7 °F 48% 30.45 in 10.0 mi North 9.2 mph - N/A   Clear
4:58 PM 16.2 °F 4.7 °F -0.2 °F 49% 30.45 in 10.0 mi North 9.2 mph - N/A   Clear
5:58 PM 14.7 °F 3.8 °F -1.3 °F 49% 30.45 in 10.0 mi NNE 8.1 mph - N/A   Clear
6:58 PM 12.6 °F 2.2 °F -1.8 °F 53% 30.47 in 10.0 mi North 6.9 mph - N/A   Clear
7:58 PM 10.4 °F -0.4 °F -1.1 °F 60% 30.48 in 10.0 mi North 6.9 mph - N/A   Clear
8:58 PM 9.0 °F 0.6 °F -1.3 °F 63% 30.46 in 10.0 mi North 4.6 mph - N/A   Clear
9:58 PM 7.0 °F 0.1 °F -1.8 °F 67% 30.46 in 10.0 mi NNE 3.5 mph - N/A   Clear
10:58 PM 7.0 °F -1.7 °F -1.5 °F 68% 30.45 in 10.0 mi NNE 4.6 mph - N/A   Clear
11:58 PM 7.3 °F - -0.6 °F 70% 30.43 in 10.0 mi NE 2.3 mph - N/A   Clear